Time,TemperatureF,DewpointF,PressureIn,WindDirection,WindDirectionDegrees,WindSpeedMPH,WindSpeedGustMPH,Humidity,HourlyPrecipIn,Conditions,Clouds,dailyrainin,SoftwareType,DateUTC
2013-04-30 00:02:00,60.0,55.0,29.91,SSE,150,1.0,4.0,83,0.00,,,0.01,,2013-04-30 04:02:00,
2013-04-30 00:12:00,60.0,55.0,29.91,SSE,150,1.0,4.0,83,0.00,,,0.01,,2013-04-30 04:12:00,
2013-04-30 00:22:00,59.0,54.0,29.92,SSE,155,0.0,2.0,84,0.00,,,0.01,,2013-04-30 04:22:00,
2013-04-30 00:32:00,59.0,54.0,29.92,SSE,154,1.0,2.0,85,0.00,,,0.01,,2013-04-30 04:32:00,
2013-04-30 00:42:00,59.0,54.0,29.92,SSE,154,1.0,2.0,85,0.00,,,0.01,,2013-04-30 04:42:00,
2013-04-30 00:52:00,59.0,54.0,29.92,SSE,151,0.0,1.0,85,0.00,,,0.01,,2013-04-30 04:52:00,
2013-04-30 01:02:00,59.0,54.0,29.93,SSE,159,0.0,2.0,85,0.00,,,0.01,,2013-04-30 05:02:00,
2013-04-30 01:12:00,59.0,54.0,29.93,SSE,159,0.0,2.0,85,0.00,,,0.01,,2013-04-30 05:12:00,
2013-04-30 01:22:00,59.0,54.0,29.93,SSE,159,0.0,2.0,85,0.00,,,0.01,,2013-04-30 05:22:00,
2013-04-30 01:31:00,60.0,55.0,29.93,SSE,159,1.0,9.0,84,0.00,,,0.01,,2013-04-30 05:31:00,
2013-04-30 01:42:00,60.0,55.0,29.93,SSE,159,1.0,9.0,84,0.00,,,0.01,,2013-04-30 05:42:00,
2013-04-30 01:51:00,60.0,55.0,29.93,South,188,0.0,3.0,84,0.00,,,0.01,,2013-04-30 05:51:00,
2013-04-30 02:02:00,60.0,55.0,29.93,South,188,0.0,3.0,84,0.00,,,0.01,,2013-04-30 06:02:00,
2013-04-30 02:12:00,60.0,55.0,29.93,South,188,0.0,3.0,84,0.00,,,0.01,,2013-04-30 06:12:00,
2013-04-30 02:21:00,59.0,54.0,29.93,SSE,159,1.0,3.0,85,0.00,,,0.01,,2013-04-30 06:21:00,
2013-04-30 02:32:00,58.0,54.0,29.94,SSE,159,0.0,2.0,86,0.00,,,0.01,,2013-04-30 06:32:00,
2013-04-30 02:42:00,58.0,54.0,29.94,SSE,159,0.0,2.0,86,0.00,,,0.01,,2013-04-30 06:42:00,
2013-04-30 02:52:00,58.0,54.0,29.94,SSE,154,1.0,3.0,86,0.00,,,0.01,,2013-04-30 06:52:00,
2013-04-30 03:02:00,58.0,54.0,29.94,SSE,154,1.0,3.0,86,0.00,,,0.01,,2013-04-30 07:02:00,
2013-04-30 03:11:00,58.0,54.0,29.94,SSE,154,1.0,3.0,86,0.00,,,0.01,,2013-04-30 07:11:00,
2013-04-30 03:21:00,57.0,53.0,29.94,South,169,0.0,2.0,88,0.00,,,0.00,,2013-04-30 07:21:00,
2013-04-30 03:32:00,57.0,53.0,29.94,South,169,0.0,2.0,88,0.00,,,0.00,,2013-04-30 07:32:00,
2013-04-30 03:42:00,57.0,53.0,29.94,South,169,0.0,2.0,88,0.00,,,0.00,,2013-04-30 07:42:00,
2013-04-30 03:52:00,56.0,53.0,29.94,SSE,157,0.0,2.0,89,0.00,,,0.00,,2013-04-30 07:52:00,
2013-04-30 04:02:00,56.0,53.0,29.95,SSW,199,0.0,2.0,90,0.00,,,0.00,,2013-04-30 08:02:00,
2013-04-30 04:11:00,56.0,53.0,29.95,SSW,199,0.0,2.0,90,0.00,,,0.00,,2013-04-30 08:11:00,
2013-04-30 04:22:00,56.0,53.0,29.95,SSW,199,0.0,2.0,90,0.00,,,0.00,,2013-04-30 08:22:00,
2013-04-30 04:32:00,55.0,52.0,29.95,SSE,152,1.0,3.0,90,0.00,,,0.00,,2013-04-30 08:32:00,
2013-04-30 04:42:00,55.0,52.0,29.95,SSE,152,1.0,3.0,90,0.00,,,0.00,,2013-04-30 08:42:00,
2013-04-30 04:52:00,55.0,52.0,29.95,SSE,152,1.0,3.0,90,0.00,,,0.00,,2013-04-30 08:52:00,
2013-04-30 05:02:00,54.0,52.0,29.95,SE,141,0.0,1.0,92,0.00,,,0.00,,2013-04-30 09:02:00,
2013-04-30 05:11:00,54.0,52.0,29.95,SE,141,0.0,1.0,92,0.00,,,0.00,,2013-04-30 09:11:00,
2013-04-30 05:22:00,54.0,52.0,29.95,SE,141,0.0,1.0,92,0.00,,,0.00,,2013-04-30 09:22:00,
2013-04-30 05:33:00,54.0,52.0,29.95,SE,141,0.0,1.0,92,0.00,,,0.00,,2013-04-30 09:33:00,
2013-04-30 05:43:00,54.0,52.0,29.95,SE,141,0.0,1.0,92,0.00,,,0.00,,2013-04-30 09:43:00,
2013-04-30 05:52:00,53.0,51.0,29.95,SSE,148,0.0,2.0,94,0.00,,,0.00,,2013-04-30 09:52:00,
2013-04-30 06:03:00,53.0,51.0,29.95,SSE,162,0.0,2.0,94,0.00,,,0.00,,2013-04-30 10:03:00,
2013-04-30 06:12:00,53.0,51.0,29.95,SSE,162,0.0,2.0,94,0.00,,,0.00,,2013-04-30 10:12:00,
2013-04-30 06:22:00,53.0,52.0,29.94,SSE,167,0.0,3.0,95,0.00,,,0.00,,2013-04-30 10:22:00,
2013-04-30 06:32:00,53.0,52.0,29.94,SSE,167,0.0,3.0,95,0.00,,,0.00,,2013-04-30 10:32:00,
2013-04-30 06:41:00,53.0,52.0,29.94,SSE,167,0.0,3.0,95,0.00,,,0.00,,2013-04-30 10:41:00,
2013-04-30 06:52:00,53.0,52.0,29.94,SSE,167,0.0,3.0,95,0.00,,,0.00,,2013-04-30 10:52:00,
2013-04-30 07:02:00,53.0,52.0,29.95,SSE,149,4.0,7.0,95,0.00,,,0.00,,2013-04-30 11:02:00,
2013-04-30 07:11:00,53.0,52.0,29.95,SSE,149,4.0,7.0,95,0.00,,,0.00,,2013-04-30 11:11:00,
2013-04-30 07:21:00,53.0,51.0,29.96,SSE,153,2.0,8.0,94,0.00,,,0.00,,2013-04-30 11:21:00,
2013-04-30 07:32:00,54.0,52.0,29.98,SSE,163,1.0,5.0,94,0.00,,,0.00,,2013-04-30 11:32:00,
2013-04-30 07:42:00,54.0,52.0,29.98,SSE,163,1.0,5.0,94,0.00,,,0.00,,2013-04-30 11:42:00,
2013-04-30 07:51:00,54.0,52.0,29.98,SSE,163,1.0,5.0,94,0.00,,,0.00,,2013-04-30 11:51:00,
2013-04-30 08:01:00,55.0,53.0,29.98,SSE,152,2.0,6.0,92,0.00,,,0.00,,2013-04-30 12:01:00,
2013-04-30 08:11:00,55.0,53.0,29.98,SSE,152,2.0,6.0,92,0.00,,,0.00,,2013-04-30 12:11:00,
2013-04-30 08:22:00,55.0,53.0,29.98,SSE,152,2.0,6.0,92,0.00,,,0.00,,2013-04-30 12:22:00,
2013-04-30 08:31:00,55.0,53.0,29.98,SSE,152,2.0,6.0,92,0.00,,,0.00,,2013-04-30 12:31:00,
2013-04-30 08:41:00,55.0,53.0,29.98,SSE,152,2.0,6.0,92,0.00,,,0.00,,2013-04-30 12:41:00,
2013-04-30 08:51:00,58.0,54.0,29.99,SSE,162,5.0,11.0,85,0.00,,,0.00,,2013-04-30 12:51:00,
2013-04-30 09:01:00,60.0,54.0,30.01,SSE,160,5.0,12.0,82,0.00,,,0.00,,2013-04-30 13:01:00,
2013-04-30 09:11:00,60.0,54.0,30.01,SSE,160,5.0,12.0,82,0.00,,,0.00,,2013-04-30 13:11:00,
2013-04-30 09:21:00,59.0,54.0,30.02,SSE,162,4.0,14.0,82,0.00,,,0.00,,2013-04-30 13:21:00,
2013-04-30 09:31:00,60.0,54.0,30.02,SSE,165,3.0,9.0,81,0.00,,,0.00,,2013-04-30 13:31:00,
2013-04-30 09:41:00,60.0,54.0,30.02,SSE,165,3.0,9.0,81,0.00,,,0.00,,2013-04-30 13:41:00,
2013-04-30 09:52:00,60.0,54.0,30.02,SSE,165,3.0,9.0,81,0.00,,,0.00,,2013-04-30 13:52:00,
2013-04-30 10:02:00,61.0,54.0,30.02,SSE,152,4.0,9.0,79,0.00,,,0.00,,2013-04-30 14:02:00,
2013-04-30 10:11:00,61.0,54.0,30.02,SSE,152,4.0,9.0,79,0.00,,,0.00,,2013-04-30 14:11:00,
2013-04-30 10:21:00,61.0,54.0,30.02,SSE,152,4.0,9.0,79,0.00,,,0.00,,2013-04-30 14:21:00,
2013-04-30 10:31:00,60.0,53.0,30.03,South,183,2.0,5.0,78,0.00,,,0.00,,2013-04-30 14:31:00,
2013-04-30 10:41:00,60.0,53.0,30.03,South,183,2.0,5.0,78,0.00,,,0.00,,2013-04-30 14:41:00,
2013-04-30 10:52:00,60.0,53.0,30.03,SSE,167,2.0,6.0,78,0.00,,,0.00,,2013-04-30 14:52:00,
2013-04-30 11:02:00,60.0,53.0,30.03,SSE,167,2.0,6.0,78,0.00,,,0.00,,2013-04-30 15:02:00,
2013-04-30 11:11:00,60.0,53.0,30.03,SSE,167,2.0,6.0,78,0.00,,,0.00,,2013-04-30 15:11:00,
2013-04-30 11:21:00,60.0,53.0,30.03,SSE,167,2.0,6.0,78,0.00,,,0.00,,2013-04-30 15:21:00,
2013-04-30 11:32:00,57.0,53.0,30.05,South,172,0.0,2.0,88,0.04,,,0.04,,2013-04-30 15:32:00,
2013-04-30 11:42:00,57.0,53.0,30.05,South,172,0.0,2.0,88,0.04,,,0.04,,2013-04-30 15:42:00,
2013-04-30 11:53:00,57.0,54.0,30.06,SSE,154,0.0,1.0,90,0.05,,,0.05,,2013-04-30 15:53:00,
2013-04-30 12:02:00,57.0,55.0,30.06,SE,130,0.0,1.0,92,0.08,,,0.09,,2013-04-30 16:02:00,
2013-04-30 12:12:00,57.0,55.0,30.06,SE,130,0.0,1.0,92,0.08,,,0.09,,2013-04-30 16:12:00,
2013-04-30 12:23:00,57.0,55.0,30.06,SE,140,0.0,2.0,92,0.08,,,0.12,,2013-04-30 16:23:00,
2013-04-30 12:33:00,57.0,55.0,30.04,SE,138,3.0,6.0,92,0.13,,,0.17,,2013-04-30 16:33:00,
2013-04-30 12:42:00,57.0,55.0,30.04,SE,138,3.0,6.0,92,0.13,,,0.17,,2013-04-30 16:42:00,
2013-04-30 12:52:00,57.0,54.0,29.99,SE,141,8.0,14.0,91,0.14,,,0.19,,2013-04-30 16:52:00,
2013-04-30 13:02:00,57.0,54.0,29.99,SE,141,8.0,14.0,91,0.14,,,0.19,,2013-04-30 17:02:00,
2013-04-30 13:12:00,57.0,54.0,29.99,SE,141,8.0,14.0,91,0.14,,,0.19,,2013-04-30 17:12:00,
2013-04-30 13:22:00,57.0,54.0,29.99,SE,141,8.0,14.0,91,0.14,,,0.19,,2013-04-30 17:22:00,
2013-04-30 13:32:00,58.0,55.0,30.00,SW,219,5.0,11.0,90,0.03,,,0.19,,2013-04-30 17:32:00,
2013-04-30 13:42:00,58.0,55.0,30.00,SW,219,5.0,11.0,90,0.03,,,0.19,,2013-04-30 17:42:00,
2013-04-30 13:53:00,58.0,55.0,30.00,SW,219,5.0,11.0,90,0.03,,,0.19,,2013-04-30 17:53:00,
2013-04-30 14:01:00,60.0,56.0,30.00,SSE,152,7.0,16.0,86,0.00,,,0.19,,2013-04-30 18:01:00,
2013-04-30 14:11:00,60.0,56.0,30.00,SSE,152,7.0,16.0,86,0.00,,,0.19,,2013-04-30 18:11:00,
2013-04-30 14:22:00,60.0,56.0,30.00,SSE,152,7.0,16.0,86,0.00,,,0.19,,2013-04-30 18:22:00,
2013-04-30 14:32:00,60.0,56.0,30.00,SSE,152,7.0,16.0,86,0.00,,,0.19,,2013-04-30 18:32:00,
2013-04-30 14:42:00,60.0,56.0,30.00,SSE,152,7.0,16.0,86,0.00,,,0.19,,2013-04-30 18:42:00,
2013-04-30 15:32:00,66.0,56.0,29.98,SSE,147,9.0,17.0,70,0.00,,,0.19,,2013-04-30 19:32:00,
2013-04-30 15:42:00,66.0,56.0,29.98,SSE,147,9.0,17.0,70,0.00,,,0.19,,2013-04-30 19:42:00,
2013-04-30 15:52:00,66.0,56.0,29.98,SSE,147,9.0,17.0,70,0.00,,,0.19,,2013-04-30 19:52:00,
2013-04-30 16:02:00,66.0,56.0,29.98,SSE,147,9.0,17.0,70,0.00,,,0.19,,2013-04-30 20:02:00,
2013-04-30 16:11:00,66.0,56.0,29.98,SSE,147,9.0,17.0,70,0.00,,,0.19,,2013-04-30 20:11:00,
2013-04-30 16:52:00,70.0,57.0,29.97,SSE,154,7.0,17.0,64,0.00,,,0.19,,2013-04-30 20:52:00,
2013-04-30 17:02:00,71.0,57.0,29.97,SSE,147,10.0,20.0,62,0.00,,,0.19,,2013-04-30 21:02:00,
2013-04-30 17:11:00,71.0,57.0,29.97,SSE,147,10.0,20.0,62,0.00,,,0.19,,2013-04-30 21:11:00,
2013-04-30 17:22:00,71.0,57.0,29.97,SSE,147,10.0,20.0,62,0.00,,,0.19,,2013-04-30 21:22:00,
2013-04-30 17:32:00,71.0,56.0,29.96,SSE,150,10.0,19.0,60,0.00,,,0.19,,2013-04-30 21:32:00,
2013-04-30 17:42:00,71.0,56.0,29.96,SSE,150,10.0,19.0,60,0.00,,,0.19,,2013-04-30 21:42:00,
2013-04-30 17:53:00,71.0,56.0,29.96,SE,145,12.0,19.0,59,0.00,,,0.19,,2013-04-30 21:53:00,
2013-04-30 18:02:00,72.0,57.0,29.96,SSE,148,9.0,17.0,60,0.00,,,0.19,,2013-04-30 22:02:00,
2013-04-30 18:12:00,72.0,57.0,29.96,SSE,148,9.0,17.0,60,0.00,,,0.19,,2013-04-30 22:12:00,
2013-04-30 18:23:00,72.0,57.0,29.96,SSE,148,9.0,17.0,60,0.00,,,0.19,,2013-04-30 22:23:00,
2013-04-30 18:33:00,72.0,57.0,29.97,SSE,149,8.0,16.0,60,0.00,,,0.19,,2013-04-30 22:33:00,
2013-04-30 18:42:00,72.0,57.0,29.97,SSE,149,8.0,16.0,60,0.00,,,0.19,,2013-04-30 22:42:00,
2013-04-30 18:53:00,72.0,57.0,29.97,SSE,148,8.0,15.0,60,0.00,,,0.19,,2013-04-30 22:53:00,
2013-04-30 19:02:00,72.0,57.0,29.98,SSE,152,9.0,18.0,59,0.00,,,0.19,,2013-04-30 23:02:00,
2013-04-30 19:12:00,72.0,57.0,29.98,SSE,152,9.0,18.0,59,0.00,,,0.19,,2013-04-30 23:12:00,
2013-04-30 19:22:00,72.0,57.0,29.98,SSE,154,9.0,18.0,59,0.00,,,0.19,,2013-04-30 23:22:00,
2013-04-30 19:32:00,72.0,57.0,29.98,SSE,153,6.0,14.0,59,0.00,,,0.19,,2013-04-30 23:32:00,
2013-04-30 19:42:00,72.0,57.0,29.98,SSE,153,6.0,14.0,59,0.00,,,0.19,,2013-04-30 23:42:00,
2013-04-30 19:52:00,71.0,56.0,29.98,SSE,151,5.0,11.0,60,0.00,,,0.19,,2013-04-30 23:52:00,
2013-04-30 20:02:00,70.0,56.0,29.98,SSE,147,5.0,12.0,62,0.00,,,0.19,,2013-05-01 00:02:00,
2013-04-30 20:11:00,70.0,56.0,29.98,SSE,147,5.0,12.0,62,0.00,,,0.19,,2013-05-01 00:11:00,
2013-04-30 20:22:00,69.0,56.0,29.99,SSE,152,6.0,12.0,64,0.00,,,0.19,,2013-05-01 00:22:00,
2013-04-30 20:32:00,69.0,56.0,29.99,SSE,152,6.0,12.0,64,0.00,,,0.19,,2013-05-01 00:32:00,
2013-04-30 20:42:00,69.0,56.0,29.99,SSE,152,6.0,12.0,64,0.00,,,0.19,,2013-05-01 00:42:00,
2013-04-30 20:51:00,67.0,56.0,30.00,SE,144,4.0,9.0,68,0.00,,,0.19,,2013-05-01 00:51:00,
2013-04-30 21:01:00,66.0,56.0,30.00,SSE,151,4.0,7.0,70,0.00,,,0.19,,2013-05-01 01:01:00,
2013-04-30 21:11:00,66.0,56.0,30.00,SSE,151,4.0,7.0,70,0.00,,,0.19,,2013-05-01 01:11:00,
2013-04-30 21:21:00,66.0,56.0,30.00,SSE,151,4.0,7.0,70,0.00,,,0.19,,2013-05-01 01:21:00,
2013-04-30 21:32:00,64.0,55.0,30.02,SSE,148,3.0,7.0,72,0.00,,,0.19,,2013-05-01 01:32:00,
2013-04-30 21:42:00,64.0,55.0,30.02,SSE,148,3.0,7.0,72,0.00,,,0.19,,2013-05-01 01:42:00,
2013-04-30 21:52:00,64.0,55.0,30.02,SSE,148,3.0,7.0,72,0.00,,,0.19,,2013-05-01 01:52:00,
2013-04-30 22:02:00,64.0,55.0,30.02,SSE,148,3.0,7.0,72,0.00,,,0.19,,2013-05-01 02:02:00,
2013-04-30 22:11:00,64.0,55.0,30.02,SSE,148,3.0,7.0,72,0.00,,,0.19,,2013-05-01 02:11:00,
2013-04-30 22:22:00,63.0,55.0,30.03,SSE,151,3.0,7.0,76,0.00,,,0.19,,2013-05-01 02:22:00,
2013-04-30 22:32:00,63.0,55.0,30.03,SSE,151,3.0,7.0,76,0.00,,,0.19,,2013-05-01 02:32:00,
2013-04-30 22:42:00,63.0,55.0,30.03,SSE,151,3.0,7.0,76,0.00,,,0.19,,2013-05-01 02:42:00,
2013-04-30 22:52:00,62.0,55.0,30.04,SSE,159,1.0,4.0,77,0.00,,,0.19,,2013-05-01 02:52:00,
2013-04-30 23:02:00,62.0,55.0,30.04,SSE,159,1.0,4.0,77,0.00,,,0.19,,2013-05-01 03:02:00,
2013-04-30 23:11:00,62.0,55.0,30.04,SSE,159,1.0,4.0,77,0.00,,,0.19,,2013-05-01 03:11:00,
2013-04-30 23:22:00,62.0,55.0,30.04,SSE,159,1.0,4.0,77,0.00,,,0.19,,2013-05-01 03:22:00,